Year,Month,Day,Hour,Minute,Value (Times are PST for insolation in W/m^2)
2008,05,24,00,00,0.00
2008,05,24,00,01,0.00
2008,05,24,00,02,0.00
2008,05,24,00,03,0.00
2008,05,24,00,04,0.00
2008,05,24,00,05,0.00
2008,05,24,00,06,0.00
2008,05,24,00,07,0.00
2008,05,24,00,08,0.00
2008,05,24,00,09,0.00
2008,05,24,00,10,0.00
2008,05,24,00,11,0.00
2008,05,24,00,12,0.00
2008,05,24,00,13,0.00
2008,05,24,01,02,0.00
2008,05,24,01,03,0.00
2008,05,24,01,04,0.00
2008,05,24,01,05,0.00
2008,05,24,01,06,0.00
2008,05,24,01,07,0.00
2008,05,24,01,08,0.00
2008,05,24,01,09,0.00
2008,05,24,01,10,0.00
2008,05,24,01,11,0.00
2008,05,24,01,12,0.00
2008,05,24,01,13,0.00
2008,05,24,01,14,0.00
2008,05,24,01,15,0.00
2008,05,24,01,16,0.00
2008,05,24,01,17,0.00
2008,05,24,01,18,0.00
2008,05,24,01,19,0.00
2008,05,24,01,20,0.00
2008,05,24,01,21,0.00
2008,05,24,01,22,0.00
2008,05,24,01,23,0.00
2008,05,24,01,24,0.00
2008,05,24,01,25,0.00
2008,05,24,01,26,0.00
2008,05,24,01,27,0.00
2008,05,24,01,28,0.00
2008,05,24,01,29,0.00
2008,05,24,01,30,0.00
2008,05,24,01,31,0.00
2008,05,24,01,32,0.00
2008,05,24,01,33,0.00
2008,05,24,01,34,0.00
2008,05,24,01,35,0.00
2008,05,24,01,36,0.00
2008,05,24,01,37,0.00
2008,05,24,01,38,0.00
2008,05,24,01,39,0.00
2008,05,24,01,40,0.00
2008,05,24,01,41,0.00
2008,05,24,01,42,0.00
2008,05,24,01,43,0.00
2008,05,24,01,44,0.00
2008,05,24,01,45,0.00
2008,05,24,01,46,0.00
2008,05,24,01,47,0.00
2008,05,24,01,48,0.00
2008,05,24,01,49,0.00
2008,05,24,01,50,0.00
2008,05,24,01,51,0.00
2008,05,24,01,52,0.00
2008,05,24,01,53,0.00
2008,05,24,01,54,0.00
2008,05,24,01,55,0.00
2008,05,24,01,56,0.00
2008,05,24,01,57,0.00
2008,05,24,01,58,0.00
2008,05,24,01,59,0.00
2008,05,24,02,00,0.00
2008,05,24,02,01,0.00
2008,05,24,02,02,0.00
2008,05,24,02,03,0.00
2008,05,24,02,04,0.00
2008,05,24,02,05,0.00
2008,05,24,02,06,0.00
2008,05,24,02,07,0.00
2008,05,24,02,08,0.00
2008,05,24,02,09,0.00
2008,05,24,02,10,0.00
2008,05,24,02,11,0.00
2008,05,24,02,12,0.00
2008,05,24,02,13,0.00
2008,05,24,02,14,0.00
2008,05,24,02,15,0.00
2008,05,24,02,16,0.00
2008,05,24,02,17,0.00
2008,05,24,02,18,0.00
2008,05,24,02,19,0.00
2008,05,24,02,20,0.00
2008,05,24,02,21,0.00
2008,05,24,02,22,0.00
2008,05,24,02,23,0.00
2008,05,24,02,24,0.00
2008,05,24,02,25,0.00
2008,05,24,02,26,0.00
2008,05,24,02,27,0.00
2008,05,24,02,28,0.00
2008,05,24,02,29,0.00
2008,05,24,02,30,0.00
2008,05,24,02,31,0.00
2008,05,24,02,32,0.00
2008,05,24,02,33,0.00
2008,05,24,02,34,0.00
2008,05,24,02,35,0.00
2008,05,24,02,36,0.00
2008,05,24,02,37,0.00
2008,05,24,02,38,0.00
2008,05,24,02,39,0.00
2008,05,24,02,40,0.00
2008,05,24,02,41,0.00
2008,05,24,02,42,0.00
2008,05,24,02,43,0.00
2008,05,24,02,44,0.00
2008,05,24,02,45,0.00
2008,05,24,02,46,0.00
2008,05,24,02,47,0.00
2008,05,24,02,48,0.00
2008,05,24,02,49,0.00
2008,05,24,02,50,0.00
2008,05,24,02,51,0.00
2008,05,24,02,52,0.00
2008,05,24,02,53,0.00
2008,05,24,02,54,0.00
2008,05,24,02,55,0.00
2008,05,24,02,56,0.00
2008,05,24,02,57,0.00
2008,05,24,02,58,0.00
2008,05,24,02,59,0.00
2008,05,24,03,00,0.00
2008,05,24,03,01,0.00
2008,05,24,03,02,0.00
2008,05,24,03,03,0.00
2008,05,24,03,04,0.00
2008,05,24,03,05,0.00
2008,05,24,03,06,0.00
2008,05,24,03,07,0.00
2008,05,24,03,08,0.00
2008,05,24,03,09,0.00
2008,05,24,03,10,0.00
2008,05,24,03,11,0.00
2008,05,24,03,12,0.00
2008,05,24,03,13,0.00
2008,05,24,03,14,0.00
2008,05,24,03,15,0.00
2008,05,24,03,16,0.00
2008,05,24,03,17,0.00
2008,05,24,03,18,0.00
2008,05,24,03,19,0.00
2008,05,24,03,20,0.00
2008,05,24,03,21,0.00
2008,05,24,03,22,0.00
2008,05,24,03,23,0.00
2008,05,24,03,24,0.00
2008,05,24,03,25,0.00
2008,05,24,03,26,0.00
2008,05,24,03,27,0.00
2008,05,24,03,28,0.00
2008,05,24,03,29,0.00
2008,05,24,03,30,0.00
2008,05,24,03,31,0.00
2008,05,24,03,32,0.00
2008,05,24,03,33,0.00
2008,05,24,03,34,0.00
2008,05,24,03,35,0.00
2008,05,24,03,36,0.00
2008,05,24,03,37,0.00
2008,05,24,03,38,0.00
2008,05,24,03,39,0.00
2008,05,24,03,40,0.00
2008,05,24,03,41,0.00
2008,05,24,03,42,0.00
2008,05,24,03,43,0.00
2008,05,24,03,44,0.00
2008,05,24,03,45,0.00
2008,05,24,03,46,0.00
2008,05,24,03,47,0.00
2008,05,24,03,48,0.00
2008,05,24,03,49,0.00
2008,05,24,03,50,0.00
2008,05,24,03,51,0.00
2008,05,24,03,52,0.00
2008,05,24,03,53,0.00
2008,05,24,03,54,0.00
2008,05,24,03,55,0.00
2008,05,24,03,56,0.00
2008,05,24,03,57,0.00
2008,05,24,03,58,0.00
2008,05,24,03,59,0.00
2008,05,24,04,00,0.00
2008,05,24,04,01,0.00
2008,05,24,04,02,0.00
2008,05,24,04,03,0.00
2008,05,24,04,04,0.00
2008,05,24,04,05,0.00
2008,05,24,04,06,0.00
2008,05,24,04,07,0.00
2008,05,24,04,08,0.00
2008,05,24,04,09,0.00
2008,05,24,04,10,0.00
2008,05,24,04,11,0.00
2008,05,24,04,12,0.00
2008,05,24,04,13,0.00
2008,05,24,04,14,0.00
2008,05,24,04,15,0.00
2008,05,24,04,16,0.00
2008,05,24,04,17,0.00
2008,05,24,04,18,0.00
2008,05,24,04,19,0.00
2008,05,24,04,20,0.00
2008,05,24,04,21,0.00
2008,05,24,04,22,0.00
2008,05,24,04,23,0.00
2008,05,24,04,24,0.00
2008,05,24,04,25,0.00
2008,05,24,04,26,0.00
2008,05,24,04,27,0.00
2008,05,24,04,28,0.00
2008,05,24,04,29,0.00
2008,05,24,04,30,0.00
2008,05,24,04,31,0.00
2008,05,24,04,32,0.00
2008,05,24,04,33,0.00
2008,05,24,04,34,0.00
2008,05,24,04,35,0.00
2008,05,24,04,36,0.00
2008,05,24,04,37,0.00
2008,05,24,04,38,0.00
2008,05,24,04,39,0.00
2008,05,24,04,40,0.00
2008,05,24,04,41,0.00
2008,05,24,04,42,0.00
2008,05,24,04,43,0.00
2008,05,24,04,44,0.00
2008,05,24,04,45,0.00
2008,05,24,04,46,0.00
2008,05,24,04,47,0.00
2008,05,24,04,48,0.00
2008,05,24,04,49,0.00
2008,05,24,04,50,0.00
2008,05,24,04,51,0.00
2008,05,24,04,52,0.00
2008,05,24,04,53,0.00
2008,05,24,04,54,0.00
2008,05,24,04,55,0.00
2008,05,24,04,56,0.00
2008,05,24,04,57,0.00
2008,05,24,04,58,0.00
2008,05,24,04,59,0.00
2008,05,24,05,00,0.00
2008,05,24,05,01,0.00
2008,05,24,05,02,0.00
2008,05,24,05,03,0.00
2008,05,24,05,04,0.00
2008,05,24,05,05,0.00
2008,05,24,05,06,0.00
2008,05,24,05,07,0.00
2008,05,24,05,08,0.00
2008,05,24,05,09,0.00
2008,05,24,05,10,0.00
2008,05,24,05,11,0.00
2008,05,24,05,12,0.00
2008,05,24,05,13,0.00
2008,05,24,05,14,0.00
2008,05,24,05,15,0.00
2008,05,24,05,16,0.00
2008,05,24,05,17,0.00
2008,05,24,05,18,0.00
2008,05,24,05,19,0.00
2008,05,24,05,20,0.00
2008,05,24,05,21,0.00
2008,05,24,05,22,0.00
2008,05,24,05,23,0.00
2008,05,24,05,24,0.00
2008,05,24,05,25,0.00
2008,05,24,05,26,0.00
2008,05,24,05,27,0.00
2008,05,24,05,28,0.00
2008,05,24,05,29,0.00
2008,05,24,05,30,0.00
2008,05,24,05,31,0.00
2008,05,24,05,32,0.00
2008,05,24,05,33,0.00
2008,05,24,05,34,0.00
2008,05,24,05,35,0.00
2008,05,24,05,36,0.00
2008,05,24,05,37,0.00
2008,05,24,05,38,0.00
2008,05,24,05,39,0.00
2008,05,24,05,40,0.00
2008,05,24,05,41,0.00
2008,05,24,05,42,4.00
2008,05,24,05,43,5.00
2008,05,24,05,44,5.30
2008,05,24,05,45,7.00
2008,05,24,05,46,7.00
2008,05,24,05,47,7.90
2008,05,24,05,48,9.00
2008,05,24,05,49,9.00
2008,05,24,05,50,10.60
2008,05,24,05,51,11.00
2008,05,24,05,52,12.00
2008,05,24,05,53,12.00
2008,05,24,05,54,12.50
2008,05,24,05,55,14.00
2008,05,24,05,56,15.00
2008,05,24,05,57,16.00
2008,05,24,05,58,16.00
2008,05,24,05,59,17.70
2008,05,24,06,00,18.00
2008,05,24,06,01,19.00
2008,05,24,06,02,19.00
2008,05,24,06,03,19.00
2008,05,24,06,04,19.00
2008,05,24,06,05,20.00
2008,05,24,06,06,21.00
2008,05,24,06,07,21.00
2008,05,24,06,08,22.70
2008,05,24,06,09,23.00
2008,05,24,06,10,23.00
2008,05,24,06,11,23.50
2008,05,24,06,12,25.00
2008,05,24,06,13,25.00
2008,05,24,06,14,25.00
2008,05,24,06,15,25.00
2008,05,24,06,16,25.00
2008,05,24,06,17,25.00
2008,05,24,06,18,26.00
2008,05,24,06,19,26.00
2008,05,24,06,20,26.00
2008,05,24,06,21,26.00
2008,05,24,06,22,26.90
2008,05,24,06,23,28.00
2008,05,24,06,24,28.00
2008,05,24,06,25,29.70
2008,05,24,06,26,30.00
2008,05,24,06,27,32.10
2008,05,24,06,28,33.00
2008,05,24,06,29,33.60
2008,05,24,06,30,35.90
2008,05,24,06,31,38.20
2008,05,24,06,32,39.60
2008,05,24,06,33,41.60
2008,05,24,06,34,43.60
2008,05,24,06,35,44.10
2008,05,24,06,36,46.20
2008,05,24,06,37,47.50
2008,05,24,06,38,49.00
2008,05,24,06,39,50.10
2008,05,24,06,40,52.20
2008,05,24,06,41,53.00
2008,05,24,06,42,53.80
2008,05,24,06,43,54.00
2008,05,24,06,44,54.00
2008,05,24,06,45,54.40
2008,05,24,06,46,56.00
2008,05,24,06,47,56.80
2008,05,24,06,48,59.10
2008,05,24,06,49,60.00
2008,05,24,06,50,61.40
2008,05,24,06,51,62.00
2008,05,24,06,52,62.00
2008,05,24,06,53,63.80
2008,05,24,06,54,85.10
2008,05,24,06,55,95.00
2008,05,24,06,56,74.50
2008,05,24,06,57,63.80
2008,05,24,06,58,63.00
2008,05,24,06,59,64.60
2008,05,24,07,00,65.00
2008,05,24,07,01,67.20
2008,05,24,07,02,69.20
2008,05,24,07,03,70.50
2008,05,24,07,04,73.70
2008,05,24,07,05,76.00
2008,05,24,07,06,77.90
2008,05,24,07,07,79.00
2008,05,24,07,08,83.20
2008,05,24,07,09,84.00
2008,05,24,07,10,83.70
2008,05,24,07,11,80.20
2008,05,24,07,12,77.00
2008,05,24,07,13,75.70
2008,05,24,07,14,72.90
2008,05,24,07,15,72.00
2008,05,24,07,16,70.40
2008,05,24,07,17,69.10
2008,05,24,07,18,68.90
2008,05,24,07,19,66.70
2008,05,24,07,20,65.00
2008,05,24,07,21,63.90
2008,05,24,07,22,62.00
2008,05,24,07,23,62.00
2008,05,24,07,24,62.00
2008,05,24,07,25,62.80
2008,05,24,07,26,64.90
2008,05,24,07,27,65.10
2008,05,24,07,28,67.00
2008,05,24,07,29,67.60
2008,05,24,07,30,69.40
2008,05,24,07,31,71.10
2008,05,24,07,32,74.50
2008,05,24,07,33,78.20
2008,05,24,07,34,82.20
2008,05,24,07,35,85.90
2008,05,24,07,36,88.50
2008,05,24,07,37,91.40
2008,05,24,07,38,94.20
2008,05,24,07,39,98.30
2008,05,24,07,40,102.80
2008,05,24,07,41,108.70
2008,05,24,07,42,113.30
2008,05,24,07,43,115.60
2008,05,24,07,44,120.00
2008,05,24,07,45,120.00
2008,05,24,07,46,120.00
2008,05,24,07,47,120.00
2008,05,24,07,48,120.00
2008,05,24,07,49,120.00
2008,05,24,07,50,120.70
2008,05,24,07,51,122.70
2008,05,24,07,52,126.40
2008,05,24,07,53,127.30
2008,05,24,07,54,130.40
2008,05,24,07,55,132.00
2008,05,24,07,56,132.80
2008,05,24,07,57,134.00
2008,05,24,07,58,134.60
2008,05,24,07,59,137.90
2008,05,24,08,00,140.70
2008,05,24,08,01,142.10
2008,05,24,08,02,144.30
2008,05,24,08,03,146.00
2008,05,24,08,04,147.10
2008,05,24,08,05,149.90
2008,05,24,08,06,152.10
2008,05,24,08,07,154.30
2008,05,24,08,08,155.00
2008,05,24,08,09,155.00
2008,05,24,08,10,154.80
2008,05,24,08,11,153.00
2008,05,24,08,12,153.50
2008,05,24,08,13,155.40
2008,05,24,08,14,157.10
2008,05,24,08,15,159.20
2008,05,24,08,16,162.00
2008,05,24,08,17,164.70
2008,05,24,08,18,168.80
2008,05,24,08,19,172.40
2008,05,24,08,20,177.10
2008,05,24,08,21,182.50
2008,05,24,08,22,187.10
2008,05,24,08,23,192.80
2008,05,24,08,24,196.20
2008,05,24,08,25,198.60
2008,05,24,08,26,199.00
2008,05,24,08,27,196.90
2008,05,24,08,28,194.70
2008,05,24,08,29,193.00
2008,05,24,08,30,190.60
2008,05,24,08,31,183.80
2008,05,24,08,32,178.20
2008,05,24,08,33,169.80
2008,05,24,08,34,161.10
2008,05,24,08,35,153.70
2008,05,24,08,36,147.80
2008,05,24,08,37,145.70
2008,05,24,08,38,144.00
2008,05,24,08,39,144.00
2008,05,24,08,40,143.00
2008,05,24,08,41,142.00
2008,05,24,08,42,142.00
2008,05,24,08,43,142.00
2008,05,24,08,44,142.10
2008,05,24,08,45,144.00
2008,05,24,08,46,144.00
2008,05,24,08,47,143.40
2008,05,24,08,48,142.00
2008,05,24,08,49,142.00
2008,05,24,08,50,142.00
2008,05,24,08,51,143.60
2008,05,24,08,52,144.00
2008,05,24,08,53,146.10
2008,05,24,08,54,148.50
2008,05,24,08,55,152.00
2008,05,24,08,56,155.40
2008,05,24,08,57,157.90
2008,05,24,08,58,161.20
2008,05,24,08,59,164.10
2008,05,24,09,00,166.60
2008,05,24,09,01,168.90
2008,05,24,09,02,171.10
2008,05,24,09,03,172.40
2008,05,24,09,04,174.60
2008,05,24,09,05,176.80
2008,05,24,09,06,178.50
2008,05,24,09,07,180.30
2008,05,24,09,08,182.50
2008,05,24,09,09,184.70
2008,05,24,09,10,188.10
2008,05,24,09,11,190.20
2008,05,24,09,12,192.30
2008,05,24,09,13,193.70
2008,05,24,09,14,195.90
2008,05,24,09,15,197.00
2008,05,24,09,16,198.40
2008,05,24,09,17,199.00
2008,05,24,09,18,197.20
2008,05,24,09,19,194.90
2008,05,24,09,20,192.80
2008,05,24,09,21,191.50
2008,05,24,09,22,189.30
2008,05,24,09,23,188.00
2008,05,24,09,24,188.00
2008,05,24,09,25,188.00
2008,05,24,09,26,188.00
2008,05,24,09,27,187.90
2008,05,24,09,28,186.00
2008,05,24,09,29,185.40
2008,05,24,09,30,183.00
2008,05,24,09,31,183.80
2008,05,24,09,32,185.00
2008,05,24,09,33,185.60
2008,05,24,09,34,187.60
2008,05,24,09,35,189.80
2008,05,24,09,36,193.10
2008,05,24,09,37,195.00
2008,05,24,09,38,195.50
2008,05,24,09,39,197.00
2008,05,24,09,40,197.00
2008,05,24,09,41,197.00
2008,05,24,09,42,195.60
2008,05,24,09,43,193.40
2008,05,24,09,44,192.10
2008,05,24,09,45,189.60
2008,05,24,09,46,185.40
2008,05,24,09,47,181.70
2008,05,24,09,48,177.70
2008,05,24,09,49,173.90
2008,05,24,09,50,170.10
2008,05,24,09,51,164.60
2008,05,24,09,52,160.50
2008,05,24,09,53,156.20
2008,05,24,09,54,152.40
2008,05,24,09,55,148.70
2008,05,24,09,56,146.50
2008,05,24,09,57,143.20
2008,05,24,09,58,141.40
2008,05,24,09,59,139.70
2008,05,24,10,00,137.60
2008,05,24,10,01,135.20
2008,05,24,10,02,134.00
2008,05,24,10,03,133.40
2008,05,24,10,04,129.40
2008,05,24,10,05,126.90
2008,05,24,10,06,123.00
2008,05,24,10,07,120.40
2008,05,24,10,08,118.70
2008,05,24,10,09,114.70
2008,05,24,10,10,111.30
2008,05,24,10,11,106.70
2008,05,24,10,12,103.20
2008,05,24,10,13,99.10
2008,05,24,10,14,97.00
2008,05,24,10,15,93.30
2008,05,24,10,16,87.50
2008,05,24,10,17,83.80
2008,05,24,10,18,79.60
2008,05,24,10,19,77.00
2008,05,24,10,20,75.70
2008,05,24,10,21,73.50
2008,05,24,10,22,71.30
2008,05,24,10,23,69.50
2008,05,24,10,24,67.90
2008,05,24,10,25,65.70
2008,05,24,10,26,65.00
2008,05,24,10,27,63.20
2008,05,24,10,28,62.90
2008,05,24,10,29,62.00
2008,05,24,10,30,62.30
2008,05,24,10,31,63.00
2008,05,24,10,32,64.10
2008,05,24,10,33,66.30
2008,05,24,10,34,69.20
2008,05,24,10,35,71.70
2008,05,24,10,36,73.90
2008,05,24,10,37,76.10
2008,05,24,10,38,77.80
2008,05,24,10,39,81.60
2008,05,24,10,40,83.50
2008,05,24,10,41,86.30
2008,05,24,10,42,90.00
2008,05,24,10,43,95.50
2008,05,24,10,44,101.20
2008,05,24,10,45,107.40
2008,05,24,10,46,114.00
2008,05,24,10,47,118.50
2008,05,24,10,48,135.70
2008,05,24,10,49,147.50
2008,05,24,10,50,158.50
2008,05,24,10,51,168.80
2008,05,24,10,52,176.20
2008,05,24,10,53,178.90
2008,05,24,10,54,180.80
2008,05,24,10,55,178.80
2008,05,24,10,56,177.40
2008,05,24,10,57,176.00
2008,05,24,10,58,177.10
2008,05,24,10,59,178.60
2008,05,24,11,00,179.00
2008,05,24,11,01,180.70
2008,05,24,11,02,180.90
2008,05,24,11,03,178.80
2008,05,24,11,04,178.00
2008,05,24,11,05,177.30
2008,05,24,11,06,176.00
2008,05,24,11,07,174.80
2008,05,24,11,08,174.00
2008,05,24,11,09,174.00
2008,05,24,11,10,174.00
2008,05,24,11,11,176.00
2008,05,24,11,12,176.50
2008,05,24,11,13,179.60
2008,05,24,11,14,182.70
2008,05,24,11,15,187.40
2008,05,24,11,16,193.20
2008,05,24,11,17,198.70
2008,05,24,11,18,205.10
2008,05,24,11,19,212.60
2008,05,24,11,20,221.50
2008,05,24,11,21,232.60
2008,05,24,11,22,246.80
2008,05,24,11,23,260.10
2008,05,24,11,24,273.30
2008,05,24,11,25,285.90
2008,05,24,11,26,297.10
2008,05,24,11,27,303.20
2008,05,24,11,28,307.90
2008,05,24,11,29,314.10
2008,05,24,11,30,323.20
2008,05,24,11,31,338.60
2008,05,24,11,32,359.00
2008,05,24,11,33,387.90
2008,05,24,11,34,437.30
2008,05,24,11,35,533.20
2008,05,24,11,36,552.10
2008,05,24,11,37,493.30
2008,05,24,11,38,485.10
2008,05,24,11,39,514.50
2008,05,24,11,40,509.90
2008,05,24,11,41,497.50
2008,05,24,11,42,488.60
2008,05,24,11,43,482.00
2008,05,24,11,44,480.30
2008,05,24,11,45,469.00
2008,05,24,11,46,457.50
2008,05,24,11,47,477.60
2008,05,24,11,48,516.00
2008,05,24,11,49,485.20
2008,05,24,11,50,513.70
2008,05,24,11,51,529.70
2008,05,24,11,52,486.80
2008,05,24,11,53,452.60
2008,05,24,11,54,442.60
2008,05,24,11,55,466.90
2008,05,24,11,56,461.60
2008,05,24,11,57,492.20
2008,05,24,11,58,520.00
2008,05,24,11,59,520.00
2008,05,24,12,00,554.90
2008,05,24,12,01,571.00
2008,05,24,12,02,571.00
2008,05,24,12,03,571.00
2008,05,24,12,04,562.20
2008,05,24,12,05,508.50
2008,05,24,12,06,453.10
2008,05,24,12,07,430.60
2008,05,24,12,08,412.30
2008,05,24,12,09,399.40
2008,05,24,12,10,402.10
2008,05,24,12,11,403.00
2008,05,24,12,12,564.00
2008,05,24,12,13,535.60
2008,05,24,12,14,429.70
2008,05,24,12,15,433.00
2008,05,24,12,16,452.20
2008,05,24,12,17,464.00
2008,05,24,12,18,1030.90
2008,05,24,12,19,1208.00
2008,05,24,12,20,640.00
2008,05,24,12,21,666.30
2008,05,24,12,22,765.00
2008,05,24,12,23,765.00
2008,05,24,12,24,947.80
2008,05,24,12,25,1149.10
2008,05,24,12,26,1148.00
2008,05,24,12,27,1148.00
2008,05,24,12,28,572.90
2008,05,24,12,29,556.60
2008,05,24,12,30,707.90
2008,05,24,12,31,779.00
2008,05,24,12,32,779.00
2008,05,24,12,33,779.00
2008,05,24,12,34,658.60
2008,05,24,12,35,639.30
2008,05,24,12,36,649.00
2008,05,24,12,37,666.10
2008,05,24,12,38,1009.60
2008,05,24,12,39,1024.00
2008,05,24,12,40,1056.00
2008,05,24,12,41,1056.00
2008,05,24,12,42,627.80
2008,05,24,12,43,396.70
2008,05,24,12,44,425.50
2008,05,24,12,45,447.30
2008,05,24,12,46,474.30
2008,05,24,12,47,462.00
2008,05,24,12,48,514.20
2008,05,24,12,49,687.40
2008,05,24,12,50,706.30
2008,05,24,12,51,703.00
2008,05,24,12,52,703.00
2008,05,24,12,53,703.00
2008,05,24,12,54,703.00
2008,05,24,12,55,507.40
2008,05,24,12,56,514.70
2008,05,24,12,57,501.00
2008,05,24,12,58,501.00
2008,05,24,12,59,501.00
2008,05,24,13,00,527.70
2008,05,24,13,01,540.00
2008,05,24,13,02,540.00
2008,05,24,13,03,535.20
2008,05,24,13,04,456.80
2008,05,24,13,05,498.50
2008,05,24,13,06,482.00
2008,05,24,13,07,482.00
2008,05,24,13,08,482.00
2008,05,24,13,09,441.40
2008,05,24,13,10,465.30
2008,05,24,13,11,473.00
2008,05,24,13,12,491.60
2008,05,24,13,13,669.90
2008,05,24,13,14,651.90
2008,05,24,13,15,589.00
2008,05,24,13,16,589.00
2008,05,24,13,17,589.00
2008,05,24,13,18,589.00
2008,05,24,13,19,589.00
2008,05,24,13,20,589.00
2008,05,24,13,21,1031.70
2008,05,24,13,22,1072.00
2008,05,24,13,23,1072.00
2008,05,24,13,24,1081.90
2008,05,24,13,25,1093.00
2008,05,24,13,26,1093.00
2008,05,24,13,27,1093.00
2008,05,24,13,28,870.70
2008,05,24,13,29,861.90
2008,05,24,13,30,1147.60
2008,05,24,13,31,1147.50
2008,05,24,13,32,1121.50
2008,05,24,13,33,1071.00
2008,05,24,13,34,1071.00
2008,05,24,13,35,1071.00
2008,05,24,13,36,1071.00
2008,05,24,13,37,1260.50
2008,05,24,13,38,1190.90
2008,05,24,13,39,521.40
2008,05,24,13,40,551.70
2008,05,24,13,41,497.20
2008,05,24,13,42,447.80
2008,05,24,13,43,436.00
2008,05,24,13,44,436.00
2008,05,24,13,45,436.00
2008,05,24,13,46,436.00
2008,05,24,13,47,436.00
2008,05,24,13,48,635.50
2008,05,24,13,49,1194.00
2008,05,24,13,50,1194.00
2008,05,24,13,51,1194.00
2008,05,24,13,52,1282.80
2008,05,24,13,53,1317.00
2008,05,24,13,54,1317.00
2008,05,24,13,55,575.00
2008,05,24,13,56,581.70
2008,05,24,13,57,597.00
2008,05,24,13,58,552.00
2008,05,24,13,59,516.00
2008,05,24,14,00,461.70
2008,05,24,14,01,487.10
2008,05,24,14,02,539.70
2008,05,24,14,03,547.00
2008,05,24,14,04,566.50
2008,05,24,14,05,742.00
2008,05,24,14,06,684.20
2008,05,24,14,07,585.00
2008,05,24,14,08,743.10
2008,05,24,14,09,897.70
2008,05,24,14,10,919.00
2008,05,24,14,11,647.00
2008,05,24,14,12,599.00
2008,05,24,14,13,574.20
2008,05,24,14,14,469.00
2008,05,24,14,15,469.00
2008,05,24,14,16,469.00
2008,05,24,14,17,469.00
2008,05,24,14,18,469.00
2008,05,24,14,19,469.00
2008,05,24,14,20,704.60
2008,05,24,14,21,610.70
2008,05,24,14,22,526.30
2008,05,24,14,23,475.00
2008,05,24,14,24,635.40
2008,05,24,14,25,856.00
2008,05,24,14,26,672.10
2008,05,24,14,27,495.60
2008,05,24,14,28,414.80
2008,05,24,14,29,408.00
2008,05,24,14,30,408.00
2008,05,24,14,31,564.80
2008,05,24,14,32,1002.50
2008,05,24,14,33,1000.00
2008,05,24,14,34,1007.50
2008,05,24,14,35,1013.00
2008,05,24,14,36,1013.00
2008,05,24,14,37,919.90
2008,05,24,14,38,976.70
2008,05,24,14,39,970.50
2008,05,24,14,40,972.80
2008,05,24,14,41,991.00
2008,05,24,14,42,991.00
2008,05,24,14,43,1020.30
2008,05,24,14,44,1063.10
2008,05,24,14,45,1089.50
2008,05,24,14,46,1119.50
2008,05,24,14,47,1121.00
2008,05,24,14,48,1121.00
2008,05,24,14,49,1121.00
2008,05,24,14,50,1121.00
2008,05,24,14,51,1121.00
2008,05,24,14,52,1121.00
2008,05,24,14,53,1121.00
2008,05,24,14,54,1121.00
2008,05,24,14,55,942.50
2008,05,24,14,56,878.10
2008,05,24,14,57,867.10
2008,05,24,14,58,855.40
2008,05,24,14,59,848.80
2008,05,24,15,00,843.90
2008,05,24,15,01,838.50
2008,05,24,15,02,837.00
2008,05,24,15,03,831.60
2008,05,24,15,04,829.80
2008,05,24,15,05,827.70
2008,05,24,15,06,825.10
2008,05,24,15,07,823.00
2008,05,24,15,08,821.90
2008,05,24,15,09,818.50
2008,05,24,15,10,816.30
2008,05,24,15,11,814.30
2008,05,24,15,12,812.10
2008,05,24,15,13,810.00
2008,05,24,15,14,809.20
2008,05,24,15,15,807.00
2008,05,24,15,16,806.10
2008,05,24,15,17,803.80
2008,05,24,15,18,803.00
2008,05,24,15,19,800.60
2008,05,24,15,20,798.20
2008,05,24,15,21,795.90
2008,05,24,15,22,794.70
2008,05,24,15,23,792.50
2008,05,24,15,24,790.20
2008,05,24,15,25,789.00
2008,05,24,15,26,785.80
2008,05,24,15,27,785.30
2008,05,24,15,28,784.30
2008,05,24,15,29,780.60
2008,05,24,15,30,780.00
2008,05,24,15,31,779.80
2008,05,24,15,32,777.70
2008,05,24,15,33,775.00
2008,05,24,15,34,773.90
2008,05,24,15,35,772.40
2008,05,24,15,36,769.10
2008,05,24,15,37,768.00
2008,05,24,15,38,766.10
2008,05,24,15,39,765.50
2008,05,24,15,40,763.00
2008,05,24,15,41,762.30
2008,05,24,15,42,761.00
2008,05,24,15,43,759.50
2008,05,24,15,44,758.00
2008,05,24,15,45,758.00
2008,05,24,15,46,754.40
2008,05,24,15,47,751.80
2008,05,24,15,48,749.00
2008,05,24,15,49,748.40
2008,05,24,15,50,745.70
2008,05,24,15,51,744.50
2008,05,24,15,52,743.10
2008,05,24,15,53,740.50
2008,05,24,15,54,738.30
2008,05,24,15,55,738.00
2008,05,24,15,56,736.80
2008,05,24,15,57,734.60
2008,05,24,15,58,733.00
2008,05,24,15,59,731.10
2008,05,24,16,00,728.40
2008,05,24,16,01,726.70
2008,05,24,16,02,724.40
2008,05,24,16,03,722.40
2008,05,24,16,04,722.00
2008,05,24,16,05,721.20
2008,05,24,16,06,716.40
2008,05,24,16,07,715.00
2008,05,24,16,08,715.00
2008,05,24,16,09,714.40
2008,05,24,16,10,709.70
2008,05,24,16,11,707.20
2008,05,24,16,12,738.30
2008,05,24,16,13,728.30
2008,05,24,16,14,705.00
2008,05,24,16,15,703.90
2008,05,24,16,16,700.60
2008,05,24,16,17,698.90
2008,05,24,16,18,698.00
2008,05,24,16,19,695.20
2008,05,24,16,20,694.00
2008,05,24,16,21,691.20
2008,05,24,16,22,688.70
2008,05,24,16,23,686.70
2008,05,24,16,24,685.30
2008,05,24,16,25,682.10
2008,05,24,16,26,680.00
2008,05,24,16,27,677.90
2008,05,24,16,28,672.30
2008,05,24,16,29,672.80
2008,05,24,16,30,670.00
2008,05,24,16,31,669.40
2008,05,24,16,32,666.00
2008,05,24,16,33,666.00
2008,05,24,16,34,664.40
2008,05,24,16,35,660.50
2008,05,24,16,36,659.00
2008,05,24,16,37,657.30
2008,05,24,16,38,654.20
2008,05,24,16,39,651.80
2008,05,24,16,40,649.40
2008,05,24,16,41,646.30
2008,05,24,16,42,645.00
2008,05,24,16,43,644.00
2008,05,24,16,44,642.40
2008,05,24,16,45,639.10
2008,05,24,16,46,635.30
2008,05,24,16,47,632.70
2008,05,24,16,48,628.00
2008,05,24,16,49,626.90
2008,05,24,16,50,623.30
2008,05,24,16,51,621.60
2008,05,24,16,52,618.80
2008,05,24,16,53,617.00
2008,05,24,16,54,613.80
2008,05,24,16,55,612.10
2008,05,24,16,56,607.80
2008,05,24,16,57,605.80
2008,05,24,16,58,603.90
2008,05,24,16,59,601.00
2008,05,24,17,00,599.40
2008,05,24,17,01,595.50
2008,05,24,17,02,592.70
2008,05,24,17,03,591.20
2008,05,24,17,04,589.20
2008,05,24,17,05,585.00
2008,05,24,17,06,583.80
2008,05,24,17,07,578.90
2008,05,24,17,08,577.00
2008,05,24,17,09,574.70
2008,05,24,17,10,571.70
2008,05,24,17,11,570.20
2008,05,24,17,12,568.20
2008,05,24,17,13,565.80
2008,05,24,17,14,562.40
2008,05,24,17,15,558.50
2008,05,24,17,16,556.30
2008,05,24,17,17,554.50
2008,05,24,17,18,552.80
2008,05,24,17,19,550.60
2008,05,24,17,20,546.10
2008,05,24,17,21,541.20
2008,05,24,17,22,540.90
2008,05,24,17,23,539.70
2008,05,24,17,24,536.70
2008,05,24,17,25,533.60
2008,05,24,17,26,532.10
2008,05,24,17,27,529.70
2008,05,24,17,28,527.50
2008,05,24,17,29,524.50
2008,05,24,17,30,520.20
2008,05,24,17,31,518.70
2008,05,24,17,32,516.50
2008,05,24,17,33,514.30
2008,05,24,17,34,512.50
2008,05,24,17,35,509.70
2008,05,24,17,36,506.60
2008,05,24,17,37,504.40
2008,05,24,17,38,501.30
2008,05,24,17,39,498.80
2008,05,24,17,40,495.60
2008,05,24,17,41,493.50
2008,05,24,17,42,490.90
2008,05,24,17,43,487.90
2008,05,24,17,44,484.50
2008,05,24,17,45,482.30
2008,05,24,17,46,478.70
2008,05,24,17,47,476.20
2008,05,24,17,48,474.60
2008,05,24,17,49,471.00
2008,05,24,17,50,469.90
2008,05,24,17,51,468.00
2008,05,24,17,52,464.70
2008,05,24,17,53,461.30